星链-32656 (STARLINK-32656)

导读

STARLINK-32656是美国太空探索技术公司SpaceX于2024年12月29日发射的星链卫星,作为星链互联网星座的一员,它被部署在近地轨道,主要为全球偏远地区、移动场景提供高速低延迟的宽带互联网服务,覆盖民用通信、应急联网等多个领域,推动星链全球网络覆盖的进一步完善,助力星链从固定联网向手机直连等多元场景加速拓展。

基本信息
目录编号:
62452
目录名称:
STARLINK-32656
国际标识:
2024-251W
轨道中心:
EARTH
卫星名称:
星链-32656
卫星全名:
星链-32656 (STARLINK-32656)
卫星状态:
在轨 (已飞行532 天)
发射日期:
2024-12-29 UTC
国别 :
美国 (US)
星等 :
--
轨道信息
数据来源 国际轨道数据
星历时间: 2026-06-14T06:29:16+0800
11小时前
查看轨道信息
半长轴: 6840.963km
偏心率: 0.0001604
轨道倾角: 53.159°
近地点辐角 85.911°
升交点赤经 248.291°
平近点角 274.208°
近地点: 461.728km
远地点: 463.924km
周期: 93.850分钟
每日圈数: 15.343587
详细信息
固有亮度:
5
最大亮度:
2.5
卫星平台:
Starlink V1.0
覆盖范围:
全球
运营商:
太空探索技术公司
运营商所在国:
美国
制造商(研发单位):
太空探索技术公司
制造商所在国:
美国
使用方式:
暂无
卫星简介
Starlink 计划是 SpaceX 推出的全球卫星互联网项目,通过发射低轨道卫星,为全球尤其是偏远地区提供高速、低延迟的互联网服务。自 2019 年起,Starlink 已部署数千颗卫星,旨在缩小全球数字鸿沟,推动互联网普及。该项目还为军事、航空等行业提供通信支持,带来广泛经济效益。
2D轨道图
3D轨道图
轨道高度分析图
轨道倾角分析图
轨道综合分析图
查看轨道综合分析图